Regional Weather Roundup
Issued by NWS Mobile, AL

Home | Current Version | Previous Version | Text Only | Print | Product List | Glossary On
Versions: 1 2 3 4 5 6 7 8 9 10 11 12 13 14 15 16 17 18 19 20 21 22 23 24 25 26 27 28
000
ASUS44 KMOB 251212
RWRMOB
REGIONAL WEATHER ROUNDUP
NATIONAL WEATHER SERVICE MOBILE AL
600 AM CST SAT NOV 25 2017

NOTE: "FAIR" INDICATES FEW OR NO CLOUDS BELOW 12,000 FEET WITH NO
      SIGNIFICANT WEATHER AND/OR OBSTRUCTIONS TO VISIBILITY.

  * THESE STATIONS ARE PART OF THE UNIVERSITY OF SOUTH ALABAMA
    MESONET AND ARE NOT UNDER NWS OR FAA QUALITY CONTROL.

ALZ061>064-251300-
COASTAL ALABAMA

CITY           SKY/WX    TMP DP  RH WIND       PRES   REMARKS
MOBILE REG APT PTCLDY    39  35  86 CALM      30.01S
6HR MIN TEMP:  37; 6HR MAX TEMP:  42;

BROOKLEY FIELD CLEAR     40  40 100 CALM      30.03R
6HR MIN TEMP:  39; 6HR MAX TEMP:  46;

USA CAMPUS*    NOT AVBL
DOG RIVER*     NOT AVBL


CITY           SKY/WX    TMP DP  RH WIND       PRES   REMARKS
GULF SHORES    PTCLDY    40  40 100 N3        30.02R

$$

ALZ051>060-251300-
INTERIOR SOUTHWEST AND SOUTH CENTRAL ALABAMA

CITY           SKY/WX    TMP DP  RH WIND       PRES   REMARKS
GREENVILLE     MOCLDY    40  36  86 CALM      30.01R
6HR MIN TEMP:  38; 6HR MAX TEMP:  44;

EVERGREEN      MOCLDY    37  35  92 CALM      30.02R
6HR MIN TEMP:  36; 6HR MAX TEMP:  42;

ATMORE*          N/A    N/A N/A N/A CALM        N/A
ANDALUSIA/OPP  CLEAR     43  39  86 CALM      30.01R
6HR MIN TEMP:  43; 6HR MAX TEMP:  47;

ANDALUSIA*       N/A     45  45 100 NW3       30.00R
FLORALA APT    CLEAR     45  42  89 CALM      30.03S
6HR MIN TEMP:  44; 6HR MAX TEMP:  49;

FLORALA*         N/A     43  43 100 CALM      30.70R

$$

FLZ001>006-251300-
WESTERN FLORIDA PANHANDLE

CITY           SKY/WX    TMP DP  RH WIND       PRES   REMARKS
PENSACOLA      PTCLDY    46  42  86 N5        30.01R
6HR MIN TEMP:  45; 6HR MAX TEMP:  53;

NAS PENSACOLA  PTCLDY    43  41  93 N3        30.00R
6HR MIN TEMP:  41; 6HR MAX TEMP:  49;

MILTON         PTCLDY    39  39 100 N3        30.02R FOG
6HR MIN TEMP:  37; 6HR MAX TEMP:  49;

WHTNG S FIELD  PTCLDY    41  36  82 CALM      30.02R HAZE
6HR MIN TEMP:  41; 6HR MAX TEMP:  52;



CITY           SKY/WX    TMP DP  RH WIND       PRES   REMARKS
JAY*             N/A     41  41 100 CALM      30.02R
DUKE FIELD     PTCLDY    42  40  95 CALM      30.00S
CRESTVIEW      CLEAR     40  38  93 CALM      30.02S FOG
6HR MIN TEMP:  39; 6HR MAX TEMP:  45;

VALPARAISO     PTCLDY    50  47  88 CALM      30.00S
6HR MIN TEMP:  49; 6HR MAX TEMP:  53;

DESTIN         CLEAR     56  50  80 N3        30.00S
6HR MIN TEMP:  55; 6HR MAX TEMP:  60;


$$

MSZ076-079-251300-
INTERIOR SOUTHEAST MISSISSIPPI

CITY           SKY/WX    TMP DP  RH WIND       PRES   REMARKS
LEAKESVILLE*   NOT AVBL
AGRICOLA*        N/A     37  37 100 CALM      30.00S

$$

MARINE OBSERVATIONS

STATION/POSITION TIME  TEMP    WIND        PRES    WAVE
                       AIR SEA DIR/SP/G            HT/PER
                 (UTC) (F)     (DEG/KT/KT) (MB)    (FT/S)
PASCAGOULA       1142   46     350/  3/  3 1016.1R
PETIT BOIS ISLND 1142   55     310/  5/  6 1016.8R
GRAND BAY        1045   45                   N/A
KATRINA CUT      1130   56     330/  6     1016.6R
CEDAR POINT      1130   51     340/  4     1015.9R
E DAUPHIN ISLAND 1100   55     310/  4/  5 1015.6S
MIDDLE BAY LIGHT 1130   54     320/  7     1015.9R
USCG MOBILE BAY  1142   44 62   CALM  /  1 1016.4R
STATE DOCKS      1142   45 64              1016.1R
MEAHER PARK      1130   47     360/  2     1016.9R
WEEKS BAY        1045   39                 1015.0F
FORT MORGAN      1142   56     350/  7/  7   N/A
12 S ORANGE BCH  NOT AVBL
PENSACOLA BAY    1142   51 62              1016.1R
64 S DAUPHIN ISL 1200   66 77  270/  8/ 12 1016.5
67 S FORT MORGAN 1130   65     330/  2     1015.6R

$$

SELECTED LOCATIONS ACROSS THE REGION

CITY           SKY/WX    TMP DP  RH WIND       PRES   REMARKS
NEW ORLEANS    PTCLDY    39  38  96 CALM      30.01S
GULFPORT       CLEAR     37  35  92 CALM      30.00F
PASCAGOULA AP  PTCLDY    32  30  92 CALM      30.01S
PASCAGOULA*      N/A     28  28 100 CALM        N/A
HATTIESBURG    PTCLDY    36  35  96 CALM      30.03R
LAUREL         PTCLDY    37  36  96 CALM      30.02R
MERIDIAN       CLOUDY    38  36  92 CALM      30.02R
JACKSON        CLOUDY    42  38  85 CALM      30.02R
MONTGOMERY     PTCLDY    39  37  92 CALM      30.02R FOG
TROY           PTCLDY    37  37 100 CALM      30.02R
ASHFORD*         N/A     45  45 100 NW3       30.00R
DOTHAN         MOCLDY    49  47  93 SW3       30.04R
PANAMA CITY    PTCLDY    49  47  93 W5        30.01R

$$





USA.gov is the U.S. government's official web portal to all federal, state and local government web resources and services.